QPF
0.00 0.00 0.00 0.00 0.01 0.02 0.01 0.00 0.00 0.00 0.00 0.00 0.00 0.00 0.00 0.00 0.01 0.03 0.01 0.00 0.00 0.01 0.01 0.00 0.00 0.01 0.03 0.03 0.03 0.02 0.02 0.02 0.02 0.01 0.02 0.03 0.04 0.04 0.04 0.06 0.09 0.11 0.12 0.15 0.20 0.17 0.20 0.18 0.11
0.00 0.00 0.00 0.00 0.01 0.01 0.01 0.00 0.00 0.00 0.00 0.00 0.00 0.00 0.00 0.00 0.00 0.00 0.00 0.00 0.01 0.02 0.01 0.00 0.00 0.03 0.04 0.05 0.04 0.02 0.01 0.01 0.01 0.01 0.02 0.04 0.04 0.03 0.04 0.06 0.07 0.10 0.11 0.14 0.16 0.14 0.16 0.16 0.11
0.00 0.00 0.00 0.00 0.01 0.01 0.01 0.00 0.00 0.00 0.00 0.00 0.00 0.00 0.00 0.00 0.00 0.00 0.00 0.00 0.01 0.01 0.01 0.00 0.01 0.07 0.12 0.12 0.07 0.02 0.01 0.01 0.01 0.02 0.03 0.04 0.04 0.04 0.05 0.05 0.05 0.08 0.12 0.14 0.16 0.16 0.13 0.11 0.09
0.00 0.00 0.00 0.01 0.00 0.00 0.00 0.00 0.00 0.00 0.00 0.00 0.00 0.00 0.00 0.00 0.00 0.00 0.00 0.00 0.00 0.01 0.00 0.00 0.01 0.05 0.09 0.06 0.04 0.02 0.01 0.01 0.01 0.02 0.03 0.03 0.04 0.04 0.05 0.04 0.06 0.08 0.12 0.15 0.15 0.15 0.12 0.09 0.07
0.00 0.00 0.01 0.01 0.00 0.00 0.00 0.00 0.00 0.00 0.00 0.00 0.00 0.00 0.01 0.00 0.00 0.00 0.00 0.00 0.00 0.00 0.01 0.01 0.01 0.01 0.02 0.01 0.01 0.01 0.01 0.01 0.01 0.01 0.02 0.03 0.04 0.05 0.04 0.04 0.06 0.10 0.13 0.15 0.12 0.11 0.10 0.06 0.05
0.00 0.00 0.00 0.00 0.00 0.00 0.00 0.00 0.00 0.00 0.00 0.00 0.00 0.01 0.01 0.00 0.00 0.00 0.00 0.00 0.00 0.00 0.01 0.01 0.01 0.02 0.01 0.01 0.01 0.01 0.01 0.01 0.01 0.01 0.01 0.02 0.03 0.03 0.03 0.03 0.04 0.08 0.12 0.12 0.06 0.08 0.09 0.05 0.04
0.00 0.00 0.01 0.01 0.00 0.00 0.00 0.00 0.00 0.01 0.01 0.00 0.00 0.02 0.02 0.00 0.00 0.00 0.00 0.00 0.00 0.00 0.00 0.01 0.01 0.01 0.01 0.01 0.01 0.01 0.01 0.01 0.01 0.01 0.01 0.02 0.02 0.02 0.02 0.03 0.03 0.06 0.11 0.08 0.05 0.06 0.05 0.04 0.03
0.00 0.00 0.00 0.01 0.01 0.00 0.00 0.00 0.00 0.01 0.01 0.00 0.00 0.01 0.01 0.01 0.00 0.00 0.00 0.00 0.00 0.00 0.00 0.01 0.01 0.02 0.02 0.02 0.01 0.01 0.02 0.02 0.01 0.01 0.01 0.02 0.02 0.02 0.03 0.04 0.04 0.06 0.07 0.05 0.05 0.04 0.03 0.03 0.02
0.00 0.00 0.00 0.00 0.01 0.00 0.00 0.00 0.00 0.00 0.00 0.00 0.00 0.01 0.00 0.00 0.00 0.00 0.00 0.00 0.00 0.00 0.00 0.01 0.01 0.02 0.02 0.02 0.01 0.01 0.02 0.02 0.02 0.02 0.01 0.03 0.06 0.04 0.04 0.04 0.04 0.05 0.04 0.03 0.03 0.03 0.04 0.03 0.02
0.00 0.00 0.00 0.00 0.00 0.00 0.00 0.00 0.00 0.00 0.00 0.01 0.01 0.00 0.00 0.00 0.00 0.00 0.00 0.00 0.01 0.01 0.01 0.01 0.01 0.02 0.02 0.03 0.03 0.03 0.03 0.03 0.03 0.04 0.04 0.06 0.07 0.06 0.03 0.03 0.05 0.09 0.07 0.04 0.03 0.03 0.03 0.03 0.02
0.00 0.00 0.00 0.00 0.00 0.00 0.00 0.00 0.00 0.00 0.02 0.04 0.02 0.01 0.00 0.00 0.00 0.00 0.00 0.00 0.01 0.01 0.01 0.01 0.01 0.01 0.02 0.04 0.04 0.03 0.04 0.05 0.05 0.05 0.05 0.06 0.05 0.05 0.04 0.03 0.04 0.05 0.06 0.06 0.05 0.04 0.04 0.03 0.03
0.00 0.00 0.01 0.00 0.00 0.00 0.00 0.00 0.00 0.00 0.01 0.03 0.03 0.02 0.01 0.00 0.00 0.00 0.00 0.00 0.00 0.01 0.02 0.01 0.01 0.01 0.02 0.03 0.03 0.03 0.03 0.03 0.05 0.05 0.05 0.05 0.06 0.06 0.05 0.05 0.06 0.06 0.05 0.07 0.08 0.06 0.04 0.03 0.03
0.00 0.00 0.00 0.00 0.00 0.00 0.00 0.01 0.00 0.00 0.00 0.00 0.01 0.01 0.02 0.02 0.01 0.00 0.01 0.01 0.01 0.02 0.02 0.02 0.01 0.01 0.02 0.04 0.04 0.03 0.03 0.03 0.04 0.04 0.04 0.04 0.04 0.06 0.07 0.06 0.07 0.07 0.05 0.07 0.07 0.07 0.06 0.04 0.03
0.00 0.00 0.00 0.00 0.00 0.00 0.00 0.00 0.00 0.00 0.01 0.01 0.00 0.00 0.01 0.02 0.01 0.01 0.01 0.02 0.02 0.02 0.03 0.03 0.02 0.02 0.02 0.03 0.03 0.03 0.03 0.03 0.02 0.03 0.03 0.02 0.03 0.04 0.06 0.07 0.08 0.06 0.05 0.06 0.06 0.06 0.06 0.06 0.05
0.00 0.00 0.00 0.00 0.00 0.00 0.00 0.01 0.01 0.00 0.01 0.01 0.00 0.00 0.00 0.01 0.01 0.02 0.01 0.01 0.01 0.02 0.02 0.02 0.03 0.04 0.02 0.03 0.03 0.03 0.02 0.03 0.03 0.03 0.03 0.02 0.02 0.04 0.05 0.06 0.07 0.06 0.06 0.06 0.05 0.05 0.05 0.05 0.06
0.00 0.01 0.01 0.01 0.01 0.00 0.01 0.04 0.02 0.00 0.00 0.00 0.00 0.00 0.00 0.03 0.01 0.02 0.01 0.01 0.01 0.02 0.02 0.01 0.01 0.03 0.02 0.02 0.03 0.03 0.03 0.03 0.03 0.04 0.03 0.03 0.03 0.04 0.05 0.06 0.06 0.06 0.05 0.06 0.06 0.04 0.05 0.05 0.06
0.01 0.01 0.01 0.01 0.01 0.00 0.01 0.02 0.01 0.01 0.00 0.00 0.00 0.00 0.00 0.00 0.00 0.00 0.00 0.00 0.01 0.01 0.02 0.01 0.01 0.02 0.02 0.02 0.02 0.03 0.04 0.04 0.04 0.03 0.04 0.05 0.04 0.04 0.05 0.05 0.05 0.05 0.05 0.06 0.06 0.06 0.06 0.06 0.05
0.00 0.01 0.01 0.02 0.01 0.00 0.01 0.01 0.01 0.00 0.00 0.01 0.00 0.00 0.00 0.00 0.00 0.00 0.00 0.00 0.00 0.01 0.02 0.02 0.02 0.02 0.02 0.03 0.03 0.03 0.04 0.04 0.04 0.04 0.05 0.04 0.04 0.05 0.05 0.04 0.05 0.04 0.04 0.07 0.08 0.09 0.07 0.05 0.04
0.00 0.01 0.01 0.01 0.01 0.00 0.00 0.01 0.01 0.00 0.00 0.00 0.00 0.00 0.00 0.00 0.00 0.00 0.00 0.00 0.01 0.01 0.02 0.03 0.03 0.02 0.02 0.03 0.02 0.02 0.03 0.03 0.04 0.05 0.06 0.06 0.05 0.05 0.06 0.06 0.07 0.05 0.06 0.07 0.08 0.08 0.07 0.07 0.06
0.01 0.01 0.01 0.01 0.00 0.00 0.01 0.03 0.02 0.01 0.00 0.00 0.00 0.01 0.01 0.00 0.00 0.01 0.02 0.03 0.03 0.03 0.02 0.03 0.04 0.03 0.02 0.02 0.02 0.02 0.02 0.04 0.05 0.07 0.09 0.09 0.08 0.06 0.06 0.07 0.06 0.06 0.07 0.07 0.07 0.07 0.07 0.07 0.06
0.00 0.00 0.00 0.00 0.00 0.00 0.02 0.05 0.03 0.02 0.01 0.00 0.00 0.00 0.01 0.01 0.01 0.02 0.04 0.07 0.07 0.08 0.06 0.04 0.05 0.04 0.03 0.02 0.02 0.02 0.03 0.03 0.07 0.09 0.08 0.08 0.09 0.08 0.06 0.07 0.07 0.07 0.07 0.06 0.06 0.05 0.06 0.07 0.06
0.00 0.00 0.00 0.00 0.00 0.01 0.01 0.03 0.04 0.03 0.01 0.00 0.00 0.00 0.01 0.01 0.01 0.02 0.04 0.07 0.13 0.15 0.11 0.05 0.07 0.07 0.04 0.03 0.02 0.02 0.02 0.01 0.05 0.06 0.07 0.07 0.12 0.09 0.05 0.06 0.06 0.06 0.06 0.07 0.05 0.05 0.06 0.06 0.05
0.00 0.00 0.00 0.00 0.00 0.00 0.00 0.01 0.02 0.03 0.03 0.01 0.00 0.00 0.02 0.01 0.01 0.02 0.04 0.07 0.12 0.14 0.08 0.03 0.05 0.10 0.08 0.04 0.03 0.02 0.01 0.02 0.02 0.02 0.03 0.03 0.03 0.03 0.03 0.03 0.03 0.02 0.03 0.04 0.05 0.06 0.05 0.04 0.04
0.00 0.00 0.00 0.00 0.01 0.01 0.01 0.01 0.02 0.02 0.04 0.05 0.02 0.01 0.01 0.01 0.02 0.02 0.03 0.03 0.04 0.04 0.03 0.03 0.03 0.06 0.09 0.05 0.03 0.03 0.03 0.03 0.02 0.03 0.03 0.04 0.03 0.03 0.02 0.02 0.02 0.02 0.02 0.03 0.04 0.06 0.04 0.04 0.05
0.00 0.01 0.01 0.01 0.01 0.01 0.00 0.01 0.02 0.02 0.03 0.05 0.03 0.01 0.01 0.01 0.02 0.02 0.02 0.02 0.02 0.02 0.02 0.02 0.03 0.03 0.04 0.04 0.03 0.03 0.04 0.04 0.03 0.02 0.03 0.03 0.02 0.02 0.03 0.03 0.04 0.03 0.03 0.03 0.04 0.05 0.05 0.05 0.05
0.00 0.01 0.01 0.01 0.01 0.00 0.01 0.01 0.02 0.01 0.02 0.03 0.04 0.03 0.02 0.01 0.01 0.02 0.01 0.01 0.01 0.01 0.01 0.01 0.02 0.02 0.03 0.02 0.03 0.03 0.04 0.03 0.04 0.04 0.03 0.03 0.02 0.02 0.03 0.05 0.05 0.05 0.04 0.03 0.04 0.04 0.04 0.05 0.06
0.00 0.00 0.00 0.01 0.00 0.01 0.01 0.02 0.01 0.01 0.01 0.02 0.02 0.02 0.02 0.01 0.01 0.01 0.01 0.01 0.02 0.01 0.01 0.01 0.01 0.02 0.02 0.01 0.01 0.02 0.02 0.03 0.03 0.04 0.05 0.04 0.03 0.02 0.03 0.03 0.04 0.04 0.03 0.04 0.04 0.04 0.04 0.05 0.05
0.00 0.00 0.00 0.01 0.01 0.01 0.01 0.02 0.03 0.04 0.04 0.03 0.01 0.00 0.01 0.01 0.01 0.01 0.01 0.01 0.01 0.02 0.02 0.01 0.01 0.01 0.01 0.01 0.01 0.01 0.01 0.01 0.02 0.03 0.03 0.04 0.03 0.03 0.02 0.02 0.03 0.03 0.03 0.03 0.04 0.04 0.05 0.05 0.04
0.00 0.00 0.00 0.01 0.01 0.01 0.02 0.03 0.03 0.03 0.03 0.02 0.01 0.01 0.01 0.01 0.01 0.01 0.01 0.01 0.01 0.01 0.01 0.01 0.01 0.01 0.01 0.01 0.01 0.01 0.01 0.01 0.01 0.01 0.02 0.03 0.03 0.02 0.02 0.02 0.02 0.02 0.02 0.03 0.04 0.05 0.06 0.06 0.06
0.00 0.00 0.01 0.02 0.02 0.02 0.02 0.03 0.02 0.01 0.01 0.01 0.02 0.03 0.02 0.01 0.01 0.02 0.01 0.01 0.01 0.01 0.02 0.02 0.02 0.01 0.01 0.01 0.01 0.01 0.01 0.01 0.01 0.01 0.01 0.01 0.02 0.02 0.02 0.02 0.02 0.02 0.02 0.04 0.04 0.04 0.06 0.06 0.06
MSLP
1004.31 1004.91 1005.48 1005.88 1006.03 1005.89 1005.50 1004.95 1004.36 1003.86 1003.55 1003.49 1003.66 1004.01 1004.46 1004.92 1005.30 1005.56 1005.71 1005.79 1005.86 1005.97 1006.18 1006.48 1006.84 1007.21 1007.50 1007.67 1007.67 1007.50 1007.20 1006.82 1006.44 1006.11 1005.87 1005.70 1005.57 1005.39 1005.11 1004.65 1003.98 1003.13 1002.13 1001.08 1000.10 999.27 998.72 998.49 998.60
1004.51 1005.10 1005.57 1005.80 1005.72 1005.36 1004.77 1004.09 1003.45 1002.98 1002.76 1002.80 1003.07 1003.50 1003.99 1004.44 1004.81 1005.06 1005.24 1005.37 1005.54 1005.78 1006.11 1006.52 1006.97 1007.38 1007.69 1007.86 1007.86 1007.71 1007.46 1007.16 1006.88 1006.65 1006.49 1006.37 1006.24 1006.06 1005.76 1005.31 1004.71 1003.98 1003.17 1002.36 1001.62 1001.04 1000.67 1000.55 1000.68
1004.79 1005.35 1005.69 1005.72 1005.41 1004.82 1004.05 1003.25 1002.57 1002.14 1002.01 1002.16 1002.54 1003.03 1003.55 1004.00 1004.34 1004.58 1004.75 1004.93 1005.17 1005.52 1005.97 1006.50 1007.03 1007.50 1007.85 1008.04 1008.06 1007.96 1007.78 1007.57 1007.38 1007.24 1007.13 1007.03 1006.90 1006.68 1006.36 1005.92 1005.37 1004.76 1004.14 1003.57 1003.09 1002.74 1002.56 1002.55 1002.70
1005.09 1005.59 1005.79 1005.62 1005.10 1004.29 1003.37 1002.49 1001.81 1001.44 1001.42 1001.69 1002.16 1002.73 1003.26 1003.69 1003.99 1004.19 1004.34 1004.54 1004.84 1005.27 1005.82 1006.44 1007.06 1007.59 1007.99 1008.22 1008.30 1008.26 1008.15 1008.03 1007.93 1007.85 1007.78 1007.68 1007.52 1007.26 1006.90 1006.45 1005.95 1005.45 1005.00 1004.63 1004.37 1004.23 1004.21 1004.29 1004.47
1005.34 1005.75 1005.80 1005.45 1004.73 1003.77 1002.74 1001.83 1001.20 1000.93 1001.03 1001.43 1002.00 1002.62 1003.17 1003.57 1003.82 1003.96 1004.08 1004.26 1004.58 1005.07 1005.69 1006.38 1007.08 1007.68 1008.13 1008.42 1008.55 1008.58 1008.55 1008.51 1008.48 1008.46 1008.41 1008.30 1008.10 1007.80 1007.39 1006.93 1006.47 1006.05 1005.72 1005.51 1005.42 1005.43 1005.52 1005.67 1005.85
1005.47 1005.76 1005.65 1005.13 1004.27 1003.21 1002.15 1001.27 1000.72 1000.59 1000.83 1001.36 1002.03 1002.70 1003.25 1003.62 1003.81 1003.89 1003.96 1004.12 1004.44 1004.95 1005.61 1006.36 1007.10 1007.75 1008.25 1008.59 1008.78 1008.88 1008.92 1008.95 1008.98 1008.99 1008.97 1008.85 1008.62 1008.28 1007.86 1007.39 1006.94 1006.58 1006.33 1006.22 1006.23 1006.34 1006.49 1006.66 1006.84
1005.42 1005.56 1005.30 1004.64 1003.69 1002.60 1001.57 1000.77 1000.36 1000.37 1000.76 1001.42 1002.18 1002.89 1003.44 1003.78 1003.91 1003.94 1003.97 1004.10 1004.41 1004.92 1005.59 1006.36 1007.13 1007.80 1008.34 1008.71 1008.95 1009.10 1009.20 1009.28 1009.37 1009.42 1009.41 1009.30 1009.07 1008.72 1008.29 1007.83 1007.41 1007.08 1006.89 1006.82 1006.88 1007.00 1007.16 1007.33 1007.48
1005.17 1005.16 1004.76 1004.00 1003.01 1001.94 1000.98 1000.31 1000.05 1000.22 1000.74 1001.51 1002.34 1003.08 1003.63 1003.95 1004.06 1004.05 1004.05 1004.16 1004.45 1004.95 1005.62 1006.38 1007.14 1007.82 1008.36 1008.75 1009.01 1009.19 1009.34 1009.47 1009.60 1009.69 1009.72 1009.64 1009.43 1009.11 1008.70 1008.27 1007.88 1007.59 1007.42 1007.37 1007.42 1007.53 1007.66 1007.78 1007.89
1004.77 1004.60 1004.08 1003.27 1002.27 1001.26 1000.42 999.90 999.78 1000.08 1000.72 1001.56 1002.44 1003.20 1003.76 1004.07 1004.17 1004.16 1004.15 1004.26 1004.55 1005.04 1005.69 1006.42 1007.15 1007.80 1008.31 1008.69 1008.96 1009.16 1009.33 1009.49 1009.66 1009.79 1009.86 1009.83 1009.68 1009.42 1009.07 1008.70 1008.36 1008.10 1007.95 1007.90 1007.92 1007.99 1008.07 1008.14 1008.21
1004.26 1003.96 1003.35 1002.52 1001.56 1000.65 999.94 999.55 999.56 999.96 1000.67 1001.55 1002.44 1003.20 1003.76 1004.08 1004.21 1004.23 1004.26 1004.39 1004.70 1005.17 1005.79 1006.48 1007.16 1007.75 1008.23 1008.58 1008.83 1009.02 1009.20 1009.38 1009.58 1009.75 1009.87 1009.90 1009.82 1009.64 1009.38 1009.09 1008.82 1008.62 1008.49 1008.43 1008.43 1008.46 1008.48 1008.50 1008.53
1003.73 1003.33 1002.68 1001.85 1000.97 1000.17 999.58 999.31 999.41 999.87 1000.60 1001.46 1002.33 1003.08 1003.64 1003.99 1004.17 1004.26 1004.36 1004.54 1004.87 1005.35 1005.94 1006.58 1007.19 1007.73 1008.14 1008.45 1008.67 1008.85 1009.02 1009.21 1009.42 1009.62 1009.79 1009.88 1009.88 1009.79 1009.63 1009.43 1009.25 1009.10 1009.01 1008.97 1008.96 1008.96 1008.95 1008.93 1008.93
1003.25 1002.79 1002.13 1001.35 1000.56 999.87 999.39 999.21 999.36 999.83 1000.52 1001.34 1002.15 1002.88 1003.45 1003.84 1004.10 1004.28 1004.47 1004.73 1005.10 1005.59 1006.15 1006.74 1007.29 1007.75 1008.11 1008.37 1008.56 1008.72 1008.88 1009.06 1009.27 1009.48 1009.68 1009.81 1009.88 1009.87 1009.80 1009.70 1009.61 1009.53 1009.50 1009.48 1009.48 1009.48 1009.46 1009.44 1009.43
1002.88 1002.39 1001.76 1001.05 1000.35 999.77 999.39 999.26 999.42 999.85 1000.47 1001.20 1001.95 1002.64 1003.22 1003.67 1004.02 1004.31 1004.61 1004.96 1005.39 1005.89 1006.43 1006.97 1007.46 1007.87 1008.18 1008.41 1008.57 1008.71 1008.85 1009.02 1009.21 1009.42 1009.61 1009.77 1009.87 1009.92 1009.93 1009.91 1009.89 1009.89 1009.91 1009.95 1009.98 1010.01 1010.01 1010.00 1010.00
1002.64 1002.15 1001.56 1000.93 1000.34 999.85 999.53 999.43 999.56 999.92 1000.44 1001.07 1001.75 1002.40 1003.00 1003.52 1003.98 1004.39 1004.81 1005.25 1005.73 1006.24 1006.77 1007.27 1007.72 1008.09 1008.37 1008.58 1008.74 1008.87 1009.00 1009.15 1009.31 1009.48 1009.65 1009.79 1009.90 1009.98 1010.03 1010.07 1010.11 1010.18 1010.26 1010.34 1010.43 1010.50 1010.54 1010.57 1010.60
1002.51 1002.04 1001.50 1000.94 1000.44 1000.02 999.75 999.65 999.73 1000.00 1000.42 1000.95 1001.55 1002.19 1002.81 1003.41 1003.98 1004.52 1005.05 1005.58 1006.11 1006.63 1007.14 1007.62 1008.03 1008.38 1008.66 1008.88 1009.05 1009.19 1009.32 1009.45 1009.57 1009.70 1009.82 1009.92 1010.00 1010.07 1010.13 1010.20 1010.29 1010.40 1010.53 1010.67 1010.81 1010.93 1011.03 1011.11 1011.18
1002.45 1001.98 1001.49 1001.01 1000.58 1000.22 999.98 999.86 999.88 1000.05 1000.37 1000.81 1001.35 1001.98 1002.65 1003.34 1004.02 1004.68 1005.32 1005.92 1006.49 1007.02 1007.51 1007.96 1008.35 1008.70 1008.99 1009.24 1009.45 1009.62 1009.76 1009.88 1009.98 1010.05 1010.11 1010.15 1010.19 1010.23 1010.28 1010.36 1010.47 1010.61 1010.77 1010.95 1011.13 1011.30 1011.45 1011.58 1011.69
1002.37 1001.91 1001.46 1001.05 1000.69 1000.38 1000.15 1000.00 999.95 1000.04 1000.26 1000.62 1001.13 1001.76 1002.48 1003.26 1004.06 1004.84 1005.57 1006.24 1006.84 1007.37 1007.84 1008.26 1008.64 1008.99 1009.31 1009.61 1009.87 1010.08 1010.26 1010.38 1010.45 1010.48 1010.48 1010.47 1010.46 1010.46 1010.49 1010.56 1010.68 1010.83 1011.01 1011.21 1011.42 1011.62 1011.81 1011.98 1012.13
1002.21 1001.77 1001.38 1001.03 1000.74 1000.48 1000.25 1000.07 999.96 999.95 1000.08 1000.38 1000.86 1001.50 1002.29 1003.16 1004.07 1004.96 1005.78 1006.51 1007.13 1007.65 1008.09 1008.49 1008.86 1009.22 1009.58 1009.92 1010.24 1010.51 1010.72 1010.86 1010.93 1010.93 1010.89 1010.84 1010.78 1010.76 1010.77 1010.84 1010.95 1011.11 1011.29 1011.49 1011.71 1011.92 1012.13 1012.32 1012.49
1001.92 1001.54 1001.22 1000.96 1000.74 1000.53 1000.31 1000.10 999.91 999.82 999.86 1000.09 1000.53 1001.19 1002.04 1003.01 1004.02 1005.02 1005.92 1006.70 1007.34 1007.85 1008.28 1008.65 1009.01 1009.38 1009.76 1010.15 1010.53 1010.85 1011.11 1011.28 1011.35 1011.35 1011.29 1011.22 1011.15 1011.11 1011.13 1011.20 1011.31 1011.47 1011.65 1011.83 1012.03 1012.22 1012.42 1012.61 1012.79
1001.52 1001.22 1001.02 1000.88 1000.76 1000.60 1000.39 1000.14 999.88 999.68 999.62 999.77 1000.17 1000.83 1001.72 1002.77 1003.89 1004.98 1005.97 1006.81 1007.48 1008.00 1008.40 1008.76 1009.10 1009.46 1009.87 1010.29 1010.71 1011.09 1011.39 1011.59 1011.69 1011.70 1011.65 1011.58 1011.52 1011.51 1011.54 1011.63 1011.76 1011.92 1012.08 1012.24 1012.40 1012.56 1012.72 1012.88 1013.06
1001.04 1000.88 1000.83 1000.84 1000.84 1000.75 1000.55 1000.25 999.90 999.58 999.40 999.44 999.77 1000.41 1001.33 1002.44 1003.65 1004.84 1005.92 1006.83 1007.54 1008.09 1008.49 1008.83 1009.16 1009.52 1009.93 1010.37 1010.82 1011.23 1011.57 1011.80 1011.93 1011.97 1011.95 1011.92 1011.90 1011.92 1011.99 1012.12 1012.27 1012.43 1012.59 1012.72 1012.83 1012.94 1013.04 1013.17 1013.31
1000.58 1000.59 1000.74 1000.92 1001.04 1001.03 1000.83 1000.47 1000.01 999.55 999.21 999.12 999.35 999.93 1000.84 1001.99 1003.27 1004.56 1005.74 1006.75 1007.54 1008.12 1008.56 1008.91 1009.23 1009.58 1009.99 1010.43 1010.89 1011.32 1011.68 1011.94 1012.10 1012.18 1012.21 1012.22 1012.25 1012.32 1012.45 1012.62 1012.80 1012.98 1013.13 1013.24 1013.30 1013.35 1013.40 1013.47 1013.57
1000.24 1000.45 1000.78 1001.13 1001.37 1001.41 1001.21 1000.77 1000.18 999.55 999.04 998.78 998.88 999.37 1000.24 1001.41 1002.75 1004.14 1005.43 1006.54 1007.43 1008.10 1008.59 1008.97 1009.31 1009.66 1010.06 1010.50 1010.95 1011.39 1011.76 1012.05 1012.24 1012.35 1012.42 1012.48 1012.56 1012.70 1012.87 1013.09 1013.31 1013.51 1013.66 1013.75 1013.78 1013.78 1013.78 1013.79 1013.85
1000.11 1000.49 1000.98 1001.45 1001.78 1001.85 1001.61 1001.08 1000.34 999.54 998.84 998.40 998.34 998.72 999.53 1000.69 1002.08 1003.54 1004.95 1006.18 1007.19 1007.97 1008.54 1008.98 1009.36 1009.73 1010.13 1010.57 1011.02 1011.45 1011.83 1012.13 1012.35 1012.50 1012.60 1012.70 1012.84 1013.01 1013.24 1013.49 1013.75 1013.97 1014.13 1014.21 1014.23 1014.20 1014.16 1014.13 1014.15
1000.25 1000.71 1001.29 1001.82 1002.18 1002.23 1001.93 1001.29 1000.41 999.43 998.55 997.93 997.71 997.97 998.70 999.83 1001.24 1002.78 1004.29 1005.65 1006.79 1007.70 1008.38 1008.91 1009.35 1009.76 1010.18 1010.62 1011.07 1011.50 1011.89 1012.21 1012.44 1012.61 1012.75 1012.88 1013.05 1013.25 1013.51 1013.79 1014.07 1014.31 1014.49 1014.59 1014.62 1014.58 1014.52 1014.47 1014.46
1000.65 1001.09 1001.65 1002.15 1002.45 1002.43 1002.04 1001.30 1000.29 999.16 998.12 997.35 996.99 997.14 997.78 998.88 1000.30 1001.88 1003.48 1004.96 1006.23 1007.26 1008.07 1008.71 1009.22 1009.69 1010.14 1010.61 1011.07 1011.52 1011.92 1012.25 1012.50 1012.70 1012.85 1013.01 1013.19 1013.41 1013.67 1013.97 1014.27 1014.53 1014.74 1014.86 1014.91 1014.89 1014.85 1014.80 1014.78
1001.23 1001.54 1001.96 1002.32 1002.50 1002.37 1001.88 1001.03 999.93 998.71 997.57 996.70 996.25 996.30 996.87 997.91 999.31 1000.92 1002.58 1004.14 1005.52 1006.68 1007.61 1008.35 1008.96 1009.50 1010.01 1010.51 1011.00 1011.46 1011.88 1012.24 1012.52 1012.73 1012.91 1013.07 1013.25 1013.47 1013.74 1014.04 1014.34 1014.62 1014.85 1015.01 1015.10 1015.13 1015.12 1015.10 1015.09
1001.91 1001.97 1002.14 1002.28 1002.27 1002.00 1001.40 1000.50 999.35 998.11 996.96 996.06 995.56 995.55 996.07 997.06 998.42 1000.01 1001.68 1003.29 1004.74 1005.99 1007.02 1007.87 1008.57 1009.18 1009.75 1010.30 1010.83 1011.33 1011.78 1012.16 1012.47 1012.71 1012.90 1013.08 1013.26 1013.47 1013.72 1014.01 1014.31 1014.60 1014.86 1015.06 1015.20 1015.28 1015.32 1015.34 1015.36
1002.55 1002.28 1002.13 1002.00 1001.77 1001.35 1000.68 999.76 998.66 997.48 996.39 995.54 995.07 995.05 995.53 996.46 997.75 999.29 1000.92 1002.52 1004.00 1005.29 1006.39 1007.31 1008.09 1008.77 1009.40 1010.00 1010.58 1011.12 1011.61 1012.03 1012.37 1012.64 1012.85 1013.04 1013.22 1013.42 1013.65 1013.92 1014.21 1014.51 1014.78 1015.02 1015.21 1015.35 1015.44 1015.51 1015.57
1003.06 1002.44 1001.96 1001.54 1001.10 1000.56 999.86 998.99 997.99 996.96 996.02 995.30 994.90 994.92 995.37 996.23 997.43 998.86 1000.41 1001.94 1003.38 1004.67 1005.79 1006.76 1007.59 1008.33 1009.01 1009.66 1010.28 1010.86 1011.39 1011.85 1012.23 1012.53 1012.77 1012.98 1013.16 1013.35 1013.57 1013.82 1014.10 1014.38 1014.67 1014.93 1015.15 1015.34 1015.48 1015.60 1015.70
Thickness
5846 5850 5850 5845 5825 5812 5814 5836 5850 5849 5849 5857 5858 5850 5835 5825 5813 5798 5828 5837 5830 5821 5812 5805 5801 5798 5794 5791 5789 5786 5784 5782 5780 5778 5777 5775 5774 5773 5772 5771 5769 5768 5767 5765 5764 5764 5763 5763 5763
5851 5855 5850 5839 5812 5798 5813 5842 5844 5848 5856 5862 5858 5851 5837 5829 5835 5830 5832 5833 5830 5821 5813 5805 5800 5797 5793 5790 5787 5785 5782 5780 5778 5776 5775 5774 5772 5771 5770 5769 5768 5766 5765 5764 5763 5762 5761 5761 5761
5851 5856 5842 5829 5814 5810 5822 5847 5851 5857 5864 5860 5851 5848 5837 5828 5835 5832 5834 5835 5830 5821 5812 5803 5799 5796 5793 5789 5786 5783 5781 5778 5776 5774 5773 5772 5771 5770 5769 5768 5766 5765 5764 5763 5762 5760 5760 5759 5759
5851 5851 5841 5823 5818 5838 5847 5855 5859 5854 5857 5861 5851 5837 5837 5843 5841 5838 5839 5837 5828 5819 5810 5802 5797 5793 5790 5787 5784 5782 5779 5776 5774 5773 5771 5770 5769 5768 5767 5766 5765 5763 5762 5761 5760 5758 5758 5758 5757
5853 5839 5822 5815 5828 5850 5864 5867 5864 5850 5849 5854 5848 5828 5824 5841 5846 5843 5839 5835 5827 5818 5809 5801 5796 5793 5789 5786 5783 5780 5777 5775 5773 5771 5769 5768 5767 5766 5765 5764 5763 5762 5760 5759 5758 5757 5757 5756 5756
5840 5834 5812 5811 5829 5855 5867 5870 5864 5854 5850 5852 5844 5828 5823 5840 5840 5839 5839 5834 5828 5818 5809 5800 5795 5792 5788 5785 5782 5779 5776 5774 5772 5769 5768 5766 5765 5764 5763 5762 5761 5760 5759 5758 5757 5756 5756 5755 5755
5830 5820 5810 5822 5831 5845 5861 5871 5861 5849 5844 5848 5850 5828 5823 5835 5839 5840 5838 5834 5827 5819 5810 5802 5796 5791 5787 5784 5781 5778 5775 5773 5770 5768 5767 5765 5764 5763 5762 5761 5759 5758 5757 5756 5756 5755 5755 5755 5754
5845 5825 5815 5822 5827 5838 5863 5868 5865 5856 5848 5862 5857 5828 5819 5832 5840 5840 5836 5832 5825 5819 5812 5805 5799 5793 5788 5784 5780 5777 5774 5772 5770 5768 5766 5764 5763 5762 5761 5760 5758 5757 5756 5755 5754 5754 5754 5754 5754
5847 5817 5806 5820 5831 5844 5862 5859 5863 5868 5857 5856 5855 5845 5840 5842 5840 5834 5829 5825 5820 5816 5812 5807 5802 5797 5793 5787 5781 5777 5774 5771 5769 5767 5765 5764 5763 5762 5761 5760 5758 5757 5756 5755 5754 5753 5753 5753 5754
5836 5810 5818 5841 5851 5853 5859 5857 5856 5853 5844 5841 5840 5843 5844 5840 5834 5827 5823 5818 5815 5812 5811 5809 5803 5799 5795 5790 5783 5780 5777 5772 5770 5768 5766 5764 5764 5763 5762 5759 5757 5756 5755 5754 5754 5753 5753 5753 5754
5831 5821 5835 5847 5857 5856 5854 5855 5858 5845 5832 5833 5831 5833 5837 5834 5830 5826 5823 5820 5816 5814 5811 5809 5804 5800 5796 5790 5785 5782 5779 5774 5771 5769 5766 5764 5763 5762 5761 5758 5756 5755 5754 5754 5754 5753 5753 5754 5754
5833 5835 5842 5847 5855 5851 5849 5850 5848 5843 5838 5846 5843 5841 5836 5830 5827 5825 5822 5820 5817 5813 5809 5807 5804 5799 5795 5790 5786 5782 5779 5775 5772 5769 5766 5764 5762 5761 5760 5758 5756 5755 5756 5755 5755 5754 5754 5754 5754
5832 5836 5844 5850 5851 5850 5849 5843 5841 5840 5847 5848 5844 5838 5833 5829 5826 5827 5826 5821 5817 5811 5808 5805 5803 5797 5793 5789 5785 5782 5779 5775 5772 5769 5766 5764 5762 5760 5759 5757 5756 5755 5756 5755 5754 5753 5753 5753 5753
5834 5839 5841 5844 5845 5846 5838 5837 5835 5837 5846 5840 5836 5834 5833 5829 5826 5823 5821 5817 5814 5810 5806 5804 5800 5795 5791 5787 5783 5781 5778 5775 5772 5768 5765 5763 5761 5759 5758 5755 5754 5754 5755 5754 5754 5753 5751 5751 5751
5836 5827 5827 5834 5837 5838 5835 5820 5828 5840 5841 5834 5833 5831 5829 5827 5826 5820 5819 5816 5812 5809 5806 5802 5798 5793 5789 5785 5782 5780 5777 5774 5771 5767 5764 5762 5760 5758 5756 5754 5752 5753 5753 5753 5753 5752 5751 5750 5749
5823 5811 5802 5823 5832 5835 5821 5801 5826 5841 5836 5830 5830 5828 5825 5823 5823 5822 5820 5816 5812 5808 5802 5799 5797 5791 5786 5783 5781 5779 5776 5773 5770 5766 5763 5760 5758 5756 5755 5752 5751 5751 5751 5751 5749 5749 5747 5745 5745
5803 5796 5797 5813 5833 5833 5820 5805 5824 5838 5835 5826 5826 5825 5823 5820 5820 5821 5819 5815 5810 5805 5800 5795 5793 5789 5784 5781 5778 5777 5774 5771 5768 5765 5761 5758 5756 5754 5752 5751 5749 5749 5749 5748 5747 5746 5744 5741 5741
5791 5799 5803 5806 5824 5827 5817 5814 5822 5834 5833 5825 5823 5821 5818 5815 5815 5818 5816 5813 5808 5803 5797 5793 5789 5785 5782 5778 5775 5773 5771 5768 5766 5763 5759 5756 5754 5752 5750 5749 5747 5746 5745 5744 5744 5742 5741 5740 5739
5807 5805 5804 5813 5829 5821 5814 5813 5817 5827 5828 5823 5818 5817 5815 5812 5815 5814 5812 5809 5803 5798 5793 5788 5784 5781 5778 5774 5770 5767 5764 5763 5762 5759 5756 5754 5752 5751 5748 5746 5744 5742 5741 5741 5741 5740 5738 5736 5737
5801 5794 5798 5813 5827 5818 5809 5806 5816 5821 5821 5821 5816 5813 5811 5808 5808 5806 5804 5801 5796 5792 5788 5785 5781 5778 5775 5772 5770 5767 5764 5761 5759 5757 5754 5752 5750 5748 5747 5743 5742 5741 5739 5739 5738 5736 5734 5734 5735
5795 5792 5795 5802 5814 5815 5804 5794 5804 5814 5820 5821 5818 5815 5812 5807 5802 5800 5797 5795 5791 5786 5783 5781 5778 5775 5772 5771 5768 5765 5761 5758 5755 5752 5750 5749 5747 5745 5744 5742 5740 5738 5737 5735 5734 5734 5731 5728 5731
5782 5801 5802 5800 5794 5788 5793 5772 5793 5804 5806 5809 5809 5809 5808 5806 5801 5796 5793 5790 5787 5783 5780 5777 5774 5771 5769 5767 5764 5760 5755 5751 5750 5749 5748 5746 5745 5743 5741 5740 5738 5736 5735 5733 5732 5732 5730 5728 5725
5787 5803 5799 5794 5787 5781 5787 5775 5785 5801 5792 5794 5800 5804 5804 5802 5798 5793 5790 5787 5785 5782 5778 5774 5770 5766 5764 5763 5761 5757 5753 5751 5750 5748 5745 5743 5741 5740 5738 5736 5734 5733 5731 5730 5729 5728 5727 5726 5724
5794 5790 5787 5785 5779 5757 5775 5772 5773 5786 5787 5787 5791 5796 5797 5797 5794 5790 5788 5784 5780 5778 5774 5770 5765 5761 5760 5758 5756 5753 5749 5747 5745 5743 5740 5739 5738 5736 5735 5734 5731 5729 5728 5727 5726 5725 5723 5723 5722
5781 5762 5747 5745 5747 5752 5781 5772 5766 5785 5793 5789 5786 5787 5790 5790 5788 5783 5780 5777 5773 5770 5767 5764 5759 5755 5754 5753 5750 5748 5746 5744 5741 5740 5738 5736 5734 5733 5731 5731 5728 5726 5725 5724 5723 5721 5719 5719 5718
5767 5761 5737 5727 5738 5757 5777 5766 5771 5791 5793 5791 5786 5782 5779 5780 5780 5778 5776 5773 5768 5764 5761 5758 5754 5750 5749 5748 5746 5744 5742 5740 5739 5737 5736 5734 5732 5731 5729 5727 5725 5724 5722 5721 5719 5718 5716 5715 5715
5758 5759 5767 5750 5749 5745 5754 5758 5767 5778 5777 5778 5774 5773 5770 5770 5772 5772 5770 5767 5763 5759 5755 5753 5749 5746 5745 5745 5743 5740 5738 5736 5735 5734 5733 5730 5729 5728 5726 5724 5722 5720 5719 5717 5715 5713 5712 5712 5711
5769 5764 5754 5741 5725 5724 5741 5743 5743 5752 5757 5761 5762 5760 5761 5762 5763 5763 5762 5760 5757 5754 5751 5749 5746 5743 5742 5741 5739 5736 5733 5732 5731 5730 5727 5726 5725 5724 5722 5720 5719 5717 5715 5713 5711 5710 5709 5708 5707
5752 5751 5747 5741 5739 5723 5720 5728 5751 5749 5750 5750 5753 5754 5752 5753 5755 5754 5753 5753 5752 5749 5746 5743 5740 5738 5736 5735 5733 5731 5729 5728 5726 5724 5722 5721 5721 5719 5718 5716 5714 5712 5710 5709 5707 5706 5705 5703 5702
5751 5746 5740 5720 5719 5727 5720 5719 5747 5746 5745 5743 5743 5745 5744 5744 5747 5747 5745 5744 5743 5741 5740 5738 5736 5733 5732 5731 5729 5727 5725 5723 5720 5719 5717 5717 5715 5714 5713 5712 5710 5708 5706 5705 5703 5701 5700 5698 5697